Terminal Aerodrome Forecast
Issued by NWS Houston/Galveston, TX

Home | Current Version | Previous Version | Text Only | Print | Product List | Glossary On
Versions: 1 2 3 4 5 6 7 8 9 10 11 12 13 14 15 16 17 18 19 20 21
000
FTUS44 KHGX 182341 CCA
TAFGLS
TAF COR
KGLS 182341Z 1900/1924 07006KT P6SM FEW030
     FM191000 11010KT P6SM FEW025
     FM191900 08014KT P6SM SCT035 BKN080=

USA.gov is the U.S. government's official web portal to all federal, state and local government web resources and services.